GEFSGL_con_prob3kmehi_294.txt.gz
EHI
12 11 7 3 0 0 0 0 0 0 0 0 0 0 1 0 0 0 0 0 0 0 0 0 0 0 0 0 0 1 0 0 0 0 0 0 0 0 0 0 0 0 0
13 11 8 4 1 1 1 0 0 0 0 0 0 1 1 1 0 0 0 0 0 0 0 1 1 0 0 0 0 1 1 0 0 0 0 0 0 0 0 0 0 0 0
14 12 8 5 3 3 2 1 1 0 0 1 1 1 2 1 0 0 0 0 0 0 0 1 1 1 0 0 0 1 2 1 1 1 1 0 0 0 0 0 0 0 0
16 13 9 6 6 5 3 3 2 2 2 2 2 3 3 2 1 0 0 0 0 0 0 1 1 1 0 0 0 1 2 2 2 2 1 0 0 0 0 0 0 0 0
20 16 11 8 7 6 4 3 4 4 5 4 3 3 3 2 1 0 0 0 0 0 0 0 0 0 0 0 0 1 1 1 1 1 1 0 0 0 0 0 0 0 0
21 18 13 10 9 7 5 3 4 6 6 6 5 4 4 3 1 0 0 0 0 0 0 0 0 0 0 0 0 0 0 0 0 0 0 1 1 0 0 0 0 0 0
21 18 14 12 10 7 5 4 5 6 7 8 8 7 6 5 2 0 0 0 0 0 0 0 0 0 0 0 0 0 0 0 0 0 0 1 1 1 0 0 0 0 0
20 16 14 12 9 6 6 6 7 8 10 10 10 9 9 6 2 0 0 0 0 0 0 0 0 0 0 0 0 0 0 0 0 0 0 1 1 1 1 0 0 0 0
19 17 14 12 9 7 7 8 9 11 11 12 11 10 9 6 2 0 0 0 1 1 1 1 0 0 0 0 0 0 0 0 0 0 0 0 0 0 0 0 1 1 2
19 18 17 16 13 10 8 8 9 9 11 12 11 9 7 5 2 0 0 1 2 3 3 2 1 1 0 0 0 0 0 0 0 1 1 0 0 0 0 1 2 4 5
18 18 19 19 18 14 12 10 9 9 10 11 10 8 6 4 1 0 0 1 2 3 4 4 3 1 0 0 0 0 0 0 1 2 2 1 0 1 1 2 3 5 6
19 19 20 20 18 16 14 12 11 10 10 10 8 7 6 4 1 0 0 0 1 2 4 4 3 1 0 0 0 0 0 0 1 2 2 1 1 2 4 4 3 4 4
22 21 19 18 17 16 15 14 14 13 12 10 8 6 6 5 3 1 0 0 0 1 2 3 1 0 0 0 0 0 0 1 2 3 2 2 2 3 4 4 4 4 4
23 20 17 15 15 15 14 15 16 17 15 12 9 7 6 4 3 2 1 0 0 0 1 1 0 0 0 0 0 1 1 1 2 3 3 3 3 3 3 4 5 5 4
21 18 15 13 14 14 13 12 13 14 14 11 9 7 5 3 1 1 1 0 0 0 0 0 0 1 1 1 1 2 2 1 1 2 3 3 3 3 3 4 6 6 4
17 16 14 12 13 12 10 8 7 7 7 6 5 5 4 2 0 0 0 0 0 0 0 0 0 1 2 2 2 3 3 3 2 3 3 4 4 3 3 4 5 5 4
14 15 14 13 13 11 8 6 4 4 3 1 1 2 2 1 0 0 0 0 0 0 0 0 0 1 1 1 2 3 3 3 3 3 3 3 4 3 2 2 4 4 4
13 14 15 14 12 10 8 6 5 4 3 1 0 0 0 0 0 0 0 0 0 0 0 0 0 0 0 0 1 3 3 3 3 3 3 3 3 2 1 1 2 3 3
12 13 14 12 10 8 7 4 4 4 3 2 1 0 0 0 0 0 0 0 0 0 0 0 0 0 0 0 1 2 3 3 3 3 3 3 3 3 1 0 1 3 3
11 10 10 9 7 6 4 3 3 3 3 3 1 0 0 0 0 0 0 0 0 0 0 0 0 0 0 0 0 1 1 2 3 3 2 2 2 2 1 0 1 2 3
9 8 7 6 5 4 3 3 3 3 3 2 1 0 0 0 0 0 0 0 0 0 0 0 0 0 0 0 0 0 0 1 3 3 2 2 1 1 1 0 1 2 3
8 8 7 6 4 3 3 4 4 3 2 1 1 0 0 0 0 0 0 0 0 0 0 0 0 0 0 0 0 0 0 1 2 3 3 2 1 1 0 0 1 2 3
6 8 8 7 4 3 3 3 3 2 1 0 0 0 0 0 0 0 0 0 0 0 0 0 0 0 0 0 0 0 0 0 1 2 2 2 2 2 1 0 0 1 2
5 7 8 7 5 3 3 2 1 1 0 0 0 0 0 0 0 0 0 0 0 0 0 0 0 0 0 0 0 0 0 0 0 1 1 1 1 1 1 0 0 0 1
4 5 6 7 5 4 2 1 0 0 0 0 0 0 0 0 0 0 0 0 0 0 0 0 0 0 0 0 0 0 0 0 0 0 0 0 0 0 0 0 0 0 0
4 4 5 6 6 4 1 0 0 0 0 0 0 0 0 0 0 0 0 0 0 0 0 0 0 0 0 0 0 0 0 0 0 0 0 0 0 0 0 0 0 0 0

GEFSGL_con_prob3kmehi_300.txt.gz
EHI
9 9 9 10 12 11 10 10 8 5 4 6 6 8 9 8 6 5 4 5 6 6 4 2 1 1 1 1 1 3 4 4 2 1 0 1 2 2 3 3 2 2 1
10 9 8 10 11 10 9 10 8 5 5 6 7 8 8 7 5 4 4 4 5 5 4 4 3 2 2 2 2 3 5 3 2 1 0 1 2 3 4 3 2 1 1
13 11 10 12 12 11 11 11 9 7 6 7 8 9 8 7 5 4 3 3 4 4 4 5 4 3 2 2 2 4 4 3 1 0 0 2 3 6 7 4 2 3 2
15 14 14 15 16 15 15 13 11 9 8 9 10 10 10 8 7 5 4 4 4 5 5 5 4 3 1 1 2 3 4 3 1 0 0 2 4 7 8 5 4 3 2
18 18 18 18 19 18 16 15 14 12 10 10 11 12 12 10 8 7 6 6 7 8 8 7 5 3 1 0 0 2 3 3 2 1 1 2 5 7 8 7 4 2 1
24 22 22 22 21 19 17 17 17 15 12 12 13 13 12 10 8 7 6 7 8 9 10 9 6 4 2 1 1 0 1 1 1 1 2 4 6 7 9 8 4 1 1
26 25 26 27 25 23 21 21 21 18 14 14 15 15 13 10 7 4 4 6 8 10 11 10 6 4 3 3 3 1 1 1 1 1 3 5 6 8 10 9 6 3 2
27 29 32 33 31 29 28 28 25 20 17 16 18 19 18 13 7 3 2 4 7 9 10 9 7 5 4 4 5 4 3 3 2 1 2 3 3 6 8 8 7 6 5
32 34 37 37 36 34 33 33 29 23 18 17 19 21 20 15 7 1 1 4 6 7 8 8 7 4 3 3 5 7 6 5 4 2 1 1 1 2 5 6 8 9 7
35 36 39 39 37 36 36 36 32 26 20 18 19 19 19 14 6 1 2 5 7 7 9 9 6 3 1 1 5 8 8 6 6 5 3 3 2 3 4 6 10 12 11
33 36 38 38 36 37 38 37 33 28 23 21 20 19 18 14 7 1 2 6 8 9 12 12 9 4 1 0 2 5 5 5 6 7 7 6 6 6 7 9 12 14 14
34 35 36 35 35 35 36 35 32 28 24 23 21 20 20 17 9 3 1 3 6 9 13 14 10 4 1 0 0 1 1 2 4 7 8 8 8 8 8 10 11 12 13
37 35 33 34 34 32 31 31 30 27 23 22 21 21 22 19 13 7 3 1 3 7 11 11 7 2 0 0 0 0 0 1 4 6 8 8 8 8 8 9 10 9 8
36 34 32 32 32 31 29 27 26 24 22 21 21 22 22 19 15 11 7 5 4 5 7 7 4 2 2 2 2 1 1 3 5 7 8 9 9 9 9 10 9 7 5
33 32 30 27 27 27 26 23 20 18 17 18 20 21 20 17 13 11 9 7 5 5 6 6 5 4 4 4 4 4 3 4 5 6 7 8 9 9 9 10 9 7 6
30 29 26 24 23 22 20 16 13 11 9 11 13 14 13 10 7 5 4 4 3 3 5 6 6 4 3 3 4 4 3 3 4 4 5 6 7 7 8 8 7 7 6
27 26 25 24 22 18 15 12 8 6 5 5 6 6 5 4 2 1 0 1 1 1 5 7 6 4 2 2 3 3 3 3 3 3 3 4 5 6 6 6 6 6 6
23 23 22 22 20 16 14 11 7 6 5 3 3 2 1 1 1 0 0 1 1 2 5 8 7 5 3 3 4 4 3 3 3 3 3 3 4 4 5 6 6 6 6
19 18 16 16 16 14 12 10 7 6 5 3 1 1 0 0 0 0 1 2 3 3 4 6 6 6 6 6 6 5 4 3 3 3 3 3 3 3 4 4 4 4 5
16 13 11 11 12 11 9 9 8 6 4 2 1 0 0 0 0 0 1 3 4 3 3 4 5 5 6 6 6 5 4 3 3 3 3 3 3 3 3 3 3 4 4
15 12 8 7 8 7 7 8 8 7 4 2 0 0 0 0 0 0 1 2 2 2 1 2 3 3 4 5 5 4 3 3 3 3 3 3 3 3 3 3 3 3 4
13 11 8 6 6 6 6 6 7 7 6 3 1 0 0 0 0 0 0 1 1 0 0 1 1 1 2 2 2 2 2 2 3 3 3 3 3 3 2 2 3 3 3
9 8 7 6 5 4 5 5 5 6 5 4 2 1 0 0 0 0 0 0 0 0 0 0 0 0 0 0 0 1 1 1 1 2 2 2 2 1 1 1 1 2 1
7 7 6 6 5 4 5 5 5 4 4 3 2 1 0 0 0 0 0 0 0 0 0 0 0 0 0 0 0 0 0 0 0 1 1 1 1 0 0 0 0 0 0
6 6 6 6 5 4 4 4 4 4 4 3 1 0 0 0 0 0 0 0 0 0 0 0 0 0 0 0 0 0 0 0 0 0 0 0 0 0 0 0 0 0 0
6 6 6 6 5 4 4 4 4 4 5 4 1 0 0 0 0 0 0 0 0 0 0 0 0 0 0 0 0 0 0 0 0 0 0 0 0 0 0 0 0 0 0

GEFSGL_con_prob3kmehi_306.txt.gz
EHI
38 39 38 36 32 29 29 29 28 27 27 26 25 22 18 16 16 16 19 21 19 15 13 11 10 7 5 4 3 4 7 8 7 6 5 6 7 6 5 6 6 5 5
39 40 40 38 35 33 32 31 31 31 30 29 27 23 19 16 17 17 18 20 18 16 15 13 11 8 7 6 5 6 8 8 8 7 7 8 7 6 6 6 5 4 4
39 39 41 41 39 38 36 35 34 33 31 29 26 22 18 16 18 19 19 19 18 18 18 17 14 11 10 10 9 8 8 9 8 7 8 10 8 5 5 6 5 4 2
40 40 43 43 42 43 42 39 36 34 31 29 25 21 18 17 19 22 21 19 20 21 21 20 16 12 11 11 9 8 8 9 8 7 8 10 8 5 4 4 3 2 2
41 42 46 46 44 44 44 42 39 35 33 31 27 23 20 18 18 20 19 18 21 23 23 20 15 11 10 9 7 6 7 8 7 6 7 8 7 5 4 4 3 2 2
39 40 43 44 43 43 43 42 41 39 38 35 31 26 22 19 16 14 14 16 20 24 25 21 14 9 9 8 5 3 4 5 5 5 6 6 7 6 6 6 5 3 3
41 39 39 41 41 41 42 44 45 44 43 40 34 30 27 21 14 9 8 12 16 21 24 22 16 11 11 10 7 3 2 2 2 3 4 5 6 7 8 7 6 5 4
44 42 40 42 42 42 44 47 50 50 48 44 37 33 32 25 13 6 5 9 14 19 22 21 19 16 13 12 10 8 6 3 2 1 2 3 4 6 6 7 6 5 4
43 43 43 45 44 43 46 49 52 54 52 47 40 36 34 27 14 5 4 9 16 20 20 17 16 16 12 9 10 12 11 7 4 1 1 2 2 3 4 4 5 5 4
42 42 45 47 46 45 47 51 54 54 52 49 45 40 34 28 16 5 3 10 17 20 17 14 11 10 8 5 8 13 13 10 6 4 2 2 2 3 3 4 6 7 7
45 45 47 47 46 45 48 53 54 52 51 50 49 43 36 28 18 7 3 8 14 17 16 12 8 5 3 2 5 9 10 8 8 6 4 3 3 5 5 6 8 10 11
46 46 46 44 41 41 45 51 52 50 48 48 46 42 36 28 18 8 2 3 8 13 14 11 6 3 1 0 2 4 4 5 7 7 6 5 5 6 7 7 8 10 12
43 42 42 41 38 38 41 45 47 46 44 42 41 40 35 28 19 10 3 1 3 6 9 8 4 1 0 0 0 1 1 3 6 7 6 6 6 7 7 7 7 9 10
39 38 38 38 38 39 40 40 40 40 40 39 37 35 32 27 19 12 6 3 2 2 4 5 4 3 2 2 2 2 3 5 6 6 6 6 6 6 5 6 7 7 8
37 35 34 35 38 39 37 32 29 29 28 28 29 27 25 21 14 9 6 4 3 2 3 6 7 8 7 6 5 5 5 6 6 5 5 7 7 5 5 6 7 7 7
36 34 32 32 34 35 32 25 18 15 11 10 12 14 13 10 5 3 2 2 1 2 4 7 10 11 11 9 8 7 7 6 6 5 6 8 8 6 5 6 6 6 6
33 31 29 29 28 28 28 24 16 10 5 2 2 4 4 2 0 0 0 0 0 1 3 6 8 10 11 10 8 6 6 6 6 5 5 7 7 5 5 4 4 4 4
26 25 25 25 25 25 26 25 21 15 10 6 3 1 1 0 0 0 0 1 1 1 3 5 6 8 9 9 7 5 6 6 5 4 5 6 5 4 3 2 2 2 3
18 19 20 21 21 23 24 24 22 18 14 11 6 2 0 0 0 0 0 1 2 2 2 4 6 7 7 7 6 6 6 6 6 5 5 5 4 3 3 2 1 1 2
14 15 16 16 16 18 20 20 19 18 15 11 7 3 1 0 0 0 0 1 1 1 1 3 4 5 4 4 5 6 6 6 6 5 5 4 3 3 3 2 1 1 1
14 13 13 12 11 13 15 15 16 16 15 12 6 3 1 0 0 0 0 0 0 0 0 1 1 1 1 2 3 4 5 4 4 4 3 2 2 2 2 2 2 2 1
14 13 12 11 11 11 11 12 13 13 12 10 7 3 1 0 0 0 0 0 0 0 0 0 0 0 0 1 1 2 3 3 2 2 1 0 1 1 1 1 1 2 2
12 11 11 12 12 11 11 11 11 10 9 8 6 4 1 0 0 0 0 0 0 0 0 0 0 0 0 0 0 1 2 2 1 0 0 0 0 0 0 0 0 1 1
10 10 10 11 11 11 11 10 9 8 7 6 6 5 3 1 0 0 0 0 0 0 0 0 0 0 0 0 0 0 1 1 0 0 0 0 0 0 0 0 0 0 0
10 10 10 10 10 11 12 11 9 8 8 6 5 4 4 2 1 1 0 0 0 0 0 0 0 0 0 0 0 0 0 0 0 0 0 0 0 0 0 0 0 0 0
10 10 10 10 10 12 13 11 10 10 8 5 3 3 4 3 2 2 1 0 0 0 0 0 0 0 0 0 0 0 0 0 0 0 0 0 0 0 0 0 0 0 0

GEFSGL_con_prob3kmehi_312.txt.gz
EHI
16 16 17 18 15 12 11 12 11 8 6 5 5 5 5 4 5 6 6 6 5 4 4 4 4 4 4 3 2 1 0 1 1 1 0 0 0 0 0 0 0 0 0
18 17 18 19 19 16 15 15 14 10 7 6 6 6 6 5 5 6 7 6 7 6 5 5 5 5 5 4 3 1 0 0 0 0 0 0 0 0 0 0 0 0 0
22 21 19 18 19 19 17 16 14 11 9 8 7 7 6 6 6 8 9 8 8 8 8 6 6 5 5 4 4 2 1 0 0 0 0 0 0 0 0 0 0 0 0
25 23 19 16 16 16 15 14 12 10 9 9 9 7 7 6 7 10 11 10 9 10 10 8 6 5 4 3 3 3 2 1 0 0 0 0 0 0 0 0 0 0 0
26 25 21 17 15 13 12 12 11 10 9 9 10 10 9 8 8 11 12 11 11 12 11 10 7 4 3 3 3 3 3 2 1 1 0 0 0 0 0 0 0 0 0
27 26 24 22 19 15 14 13 12 11 10 9 10 12 12 10 10 10 10 10 11 12 12 11 8 5 3 3 3 3 3 3 3 2 1 1 0 0 0 0 0 0 0
25 25 25 26 24 22 20 18 15 13 12 11 12 15 15 12 9 8 8 8 9 9 10 9 7 6 4 3 3 2 2 3 3 3 3 2 1 0 0 0 0 0 0
23 22 24 27 28 27 26 23 18 15 15 15 15 16 16 13 8 5 4 5 6 7 7 7 7 6 5 4 3 3 3 3 3 3 2 2 1 0 0 0 0 0 0
21 20 21 25 27 28 27 24 21 18 16 17 16 15 15 12 7 3 2 2 4 5 5 6 6 6 6 4 3 3 3 3 3 2 1 1 0 0 0 0 0 1 1
21 20 21 22 25 26 24 21 21 19 17 16 13 12 12 10 6 3 1 2 4 4 4 5 6 5 4 3 3 3 3 3 3 2 1 1 0 0 0 0 0 0 0
23 23 23 23 24 24 23 21 21 19 17 15 13 11 10 8 5 3 1 2 4 4 4 5 5 3 2 1 1 2 2 3 3 3 3 2 1 0 1 1 1 0 0
28 27 26 25 24 22 22 23 23 21 18 16 15 13 9 7 6 3 1 1 2 4 4 4 3 2 0 0 0 1 1 1 2 3 3 3 2 1 1 2 2 1 0
30 29 26 25 23 22 21 23 24 23 20 18 17 15 11 8 6 3 1 0 0 2 2 2 1 1 0 0 0 0 0 0 1 2 3 3 3 2 2 3 3 2 1
30 27 25 23 21 20 20 21 23 23 21 19 18 17 14 9 5 3 1 1 0 0 0 0 0 0 0 0 0 0 0 0 0 1 2 4 4 3 3 3 3 3 2
25 25 23 22 21 19 19 19 18 17 17 16 15 16 14 9 5 3 2 2 1 0 0 0 0 0 0 1 2 1 1 1 0 0 2 4 4 5 4 3 2 2 1
18 19 20 21 21 19 17 16 13 10 8 8 8 10 9 6 3 1 1 2 1 0 0 0 0 0 0 2 3 3 2 2 1 1 2 3 3 3 3 1 1 1 0
12 14 17 18 18 17 15 14 11 7 3 1 2 3 3 3 1 0 0 1 1 0 1 1 1 1 1 2 3 3 2 2 2 2 2 2 1 1 1 0 0 0 0
11 12 15 16 15 14 14 13 12 9 4 1 0 1 1 1 0 0 0 0 0 1 2 2 2 2 2 2 2 1 1 1 1 1 1 1 0 0 0 0 0 0 0
11 12 13 15 15 13 13 13 13 12 8 3 1 0 0 0 0 0 0 1 1 1 3 3 3 2 2 1 1 0 0 0 0 0 0 0 0 0 0 0 0 0 0
11 11 12 14 14 13 13 13 13 12 8 4 1 0 0 0 0 0 0 1 2 2 2 2 1 1 1 0 0 0 0 0 0 0 0 0 0 0 0 0 0 0 0
9 9 11 12 12 12 13 13 13 11 7 4 2 0 0 0 0 0 0 1 1 1 1 1 0 0 0 0 0 0 0 0 0 0 0 0 0 0 0 0 0 0 0
8 9 10 10 10 11 11 12 11 10 7 5 2 0 0 0 0 0 0 0 0 0 0 0 0 0 0 0 0 0 0 0 0 0 0 0 0 0 0 0 0 0 0
7 8 9 9 8 8 9 9 10 9 7 4 1 0 0 0 0 0 0 0 0 0 0 0 0 0 0 0 0 0 0 0 0 0 0 0 0 0 0 0 0 0 0
7 7 7 7 7 7 7 8 9 8 6 4 1 0 0 0 0 0 0 0 0 0 0 0 0 0 0 0 0 0 0 0 0 0 0 0 0 0 0 0 0 0 0
6 6 6 6 6 6 6 7 8 8 6 3 1 0 0 0 0 0 0 0 0 0 0 0 0 0 0 0 0 0 0 0 0 0 0 0 0 0 0 0 0 0 0
4 5 6 6 6 6 6 7 8 7 6 4 2 1 0 0 0 0 0 0 0 0 0 0 0 0 0 0 0 0 0 0 0 0 0 0 0 0 0 0 0 0 0

GEFSGL_con_prob3kmehi_318.txt.gz
EHI
4 4 3 4 4 3 3 3 3 3 4 4 2 1 1 2 2 1 0 0 0 0 0 1 3 4 5 5 6 6 5 4 3 2 1 0 0 0 0 0 0 0 0
4 3 3 3 3 2 2 3 3 3 4 4 3 1 0 2 3 2 2 1 0 0 0 1 2 3 4 4 4 5 5 4 3 1 0 0 0 0 0 0 0 0 0
3 4 4 3 3 2 2 3 3 4 4 4 2 1 1 2 3 4 4 2 1 0 0 1 2 3 4 3 3 4 4 3 2 1 0 0 0 0 0 0 0 0 0
4 4 4 4 3 2 2 2 3 4 4 3 3 2 3 3 4 4 4 3 1 0 0 2 3 4 4 3 2 3 3 2 1 0 0 0 0 0 0 0 0 0 0
5 5 5 5 4 3 1 1 2 3 3 3 3 3 3 3 3 3 4 3 1 0 0 1 2 3 3 3 2 3 3 2 1 1 0 0 0 0 0 0 0 0 0
5 6 7 7 6 4 2 1 1 1 1 2 3 4 3 3 1 1 2 2 2 0 0 0 1 2 2 2 1 1 2 2 3 3 2 1 1 1 1 0 0 0 0
6 7 8 8 8 7 4 3 2 1 1 2 3 4 4 2 1 0 1 2 1 0 0 0 1 2 3 3 3 2 2 2 2 4 4 3 2 2 2 1 1 1 0
7 7 8 8 9 8 6 4 3 3 3 3 3 4 3 2 1 0 1 1 0 0 0 0 1 2 3 4 4 4 4 3 2 2 3 3 3 2 2 2 2 2 1
7 6 7 8 9 8 7 6 5 4 4 3 2 3 3 3 1 0 1 1 0 0 0 0 1 1 1 1 2 3 4 4 3 2 1 2 1 1 1 2 3 3 3
7 6 6 7 9 9 8 8 7 5 3 2 1 2 3 3 2 0 0 1 1 1 1 0 0 0 0 0 1 2 3 4 4 3 2 1 2 1 1 1 2 3 4
6 7 7 7 8 9 9 9 9 8 5 2 1 1 2 2 1 1 0 1 2 3 3 2 0 0 0 0 0 1 2 2 3 3 2 3 4 4 3 2 2 2 3
6 6 6 5 6 9 9 9 10 10 9 5 3 2 2 2 2 1 0 0 1 3 4 3 1 0 0 0 0 0 0 0 1 1 1 3 5 6 5 3 3 2 2
6 6 5 5 6 9 10 9 11 13 12 10 7 6 6 5 4 2 1 0 0 2 3 2 1 0 0 0 0 0 0 0 0 0 0 1 3 4 4 4 4 4 3
7 6 6 6 7 10 10 11 13 14 14 12 11 10 10 8 6 3 1 0 0 0 1 1 0 0 0 0 0 0 0 0 0 0 0 0 1 1 1 2 3 4 3
6 6 7 7 8 9 11 11 12 11 11 10 10 10 10 8 6 3 1 0 0 0 0 0 0 0 0 0 0 0 0 0 0 0 0 0 0 0 0 1 3 3 2
4 5 7 8 9 10 11 10 8 6 5 5 6 6 6 5 4 1 0 0 0 0 0 0 0 0 0 0 0 0 0 0 0 0 0 0 0 0 1 2 3 2 1
4 6 8 9 11 12 12 10 8 6 3 2 2 2 2 1 1 0 0 0 0 0 0 0 0 1 1 1 1 0 0 0 0 0 0 0 0 1 2 3 2 1 0
4 5 6 8 10 12 12 12 11 9 7 4 2 0 0 0 0 0 0 0 0 0 0 0 1 2 2 2 2 1 0 0 0 0 0 0 1 2 2 2 1 0 0
4 3 3 5 8 11 12 12 12 12 10 7 3 1 0 0 0 0 0 0 0 0 0 0 1 2 3 3 3 2 0 0 0 0 0 0 1 2 1 1 0 0 0
3 1 1 3 5 8 11 11 12 12 12 9 6 3 1 0 0 0 0 0 0 0 0 0 0 1 3 3 3 1 0 0 0 0 0 0 1 1 0 0 0 0 0
1 0 0 1 3 6 8 10 11 12 12 11 9 5 2 0 0 0 0 0 0 0 0 0 0 1 2 3 3 1 0 0 0 0 0 0 0 0 0 0 0 0 0
0 0 0 1 3 5 6 7 9 10 12 12 10 5 2 0 0 0 0 0 0 0 0 0 0 1 2 3 2 1 0 0 0 0 0 0 0 0 0 0 0 0 0
0 0 0 1 3 5 6 7 7 9 10 11 9 6 2 0 0 0 0 0 0 0 0 0 0 1 1 1 1 1 0 0 0 0 0 0 0 0 0 0 0 0 0
0 0 1 2 3 5 6 6 7 8 9 9 9 7 3 1 0 0 0 0 0 0 0 0 0 0 0 0 0 0 0 0 0 0 0 0 0 0 0 0 0 0 0
0 0 2 3 3 4 6 6 7 8 9 8 8 6 4 2 1 0 0 0 0 0 0 0 0 0 0 0 0 0 0 0 0 0 0 0 0 0 0 0 0 0 0
0 0 1 3 3 4 6 6 7 8 9 8 7 6 4 2 1 0 0 0 0 0 0 0 0 0 0 0 0 0 0 0 0 0 0 0 0 0 0 0 0 0 0

GEFSGL_con_prob3kmehi_324.txt.gz
EHI
9 8 8 8 7 8 9 9 8 7 7 6 5 5 6 7 7 7 8 10 11 12 13 15 17 18 16 12 10 9 8 6 4 3 1 0 0 0 0 0 0 1 3
8 9 11 10 9 9 10 10 8 7 8 7 5 5 6 7 7 8 8 8 10 12 14 16 16 17 16 13 11 9 7 7 5 3 1 1 1 1 0 0 0 0 1
9 11 13 13 12 11 12 13 10 9 8 6 4 3 5 6 7 8 7 8 11 14 16 16 15 15 15 15 13 10 7 6 5 4 3 2 3 3 2 1 0 0 0
13 13 14 15 15 15 16 16 14 10 7 5 2 1 2 4 5 6 6 9 12 16 17 17 15 14 14 15 14 13 10 7 5 4 4 4 4 5 4 2 0 0 1
16 15 15 16 18 19 19 17 13 9 7 6 4 2 2 3 4 4 5 8 12 15 17 17 15 13 12 11 11 11 10 7 6 6 6 5 4 5 5 4 3 2 2
18 18 18 17 18 19 19 15 11 9 8 8 8 6 5 4 3 3 3 6 11 15 16 16 15 13 11 8 6 4 4 5 6 7 6 5 5 5 5 6 6 5 4
22 22 21 20 19 20 19 16 14 13 13 12 12 11 8 6 3 1 2 6 11 15 16 16 15 14 12 10 7 4 3 3 4 5 5 5 5 6 7 8 9 9 8
27 25 23 23 22 23 23 21 19 18 16 15 13 12 10 7 3 1 2 5 10 13 14 15 15 13 12 11 10 10 9 6 3 3 4 4 4 6 7 8 10 11 11
26 24 21 22 23 22 22 22 21 19 17 15 12 11 11 9 5 2 2 5 8 9 9 11 11 9 7 7 9 11 11 8 4 2 2 2 2 2 3 6 9 10 9
21 19 18 18 19 18 18 18 19 19 18 16 12 11 11 10 7 3 2 5 7 7 7 7 6 4 3 2 5 9 9 7 5 4 3 3 2 2 2 5 8 10 9
18 17 16 16 15 15 16 17 18 19 19 17 15 13 12 11 7 3 1 3 5 7 6 5 3 1 1 0 2 5 5 5 6 6 6 6 5 6 6 7 9 10 10
21 19 18 17 14 14 16 18 17 17 17 17 16 15 14 12 6 2 0 1 3 6 6 4 2 1 0 0 0 1 2 3 5 7 7 6 7 9 10 10 10 11 11
24 20 18 17 15 14 15 16 16 16 16 15 14 14 14 11 7 2 0 0 1 3 4 2 1 0 0 0 0 0 0 2 5 6 6 5 6 10 13 12 11 11 11
22 20 17 15 13 12 13 13 15 15 15 13 12 13 12 10 7 4 2 1 1 1 2 2 2 1 1 1 0 1 1 2 4 6 6 5 6 9 12 12 11 10 11
19 17 14 12 11 11 12 11 11 12 10 11 12 13 12 9 6 4 3 2 1 1 2 3 3 3 2 1 1 1 2 2 3 5 7 7 8 8 10 10 10 9 10
15 13 11 10 11 12 13 12 9 6 4 5 8 9 8 5 2 1 1 1 1 1 1 1 2 1 1 1 0 1 2 3 4 6 7 7 8 7 7 8 8 8 9
10 9 9 11 13 15 15 14 11 6 3 2 3 3 3 1 0 0 0 0 0 0 0 0 1 1 1 1 0 0 1 2 4 6 6 7 7 7 6 6 7 7 7
8 7 8 11 13 15 16 16 13 9 7 6 3 1 0 0 0 0 0 0 0 0 0 0 1 2 2 2 1 1 0 1 4 6 6 6 6 6 6 6 6 6 6
7 7 7 9 10 11 13 14 12 10 10 10 8 4 1 0 0 0 0 1 2 1 1 0 1 2 3 3 2 1 1 1 3 5 5 5 6 6 6 5 4 4 4
6 5 5 6 6 7 9 10 9 9 10 10 9 6 3 1 1 0 1 2 4 4 2 1 1 2 3 3 3 1 1 1 2 3 4 5 5 5 4 4 3 3 3
5 4 3 3 4 4 5 5 6 7 8 8 7 6 4 3 3 2 2 3 6 7 5 3 2 3 3 3 2 1 0 1 1 2 4 5 4 4 3 2 2 2 1
5 4 3 3 3 3 3 4 4 5 5 4 5 5 4 5 5 4 3 4 7 9 7 5 4 4 4 4 3 1 0 0 0 1 3 3 3 2 1 1 1 1 0
4 3 3 3 3 3 3 4 4 3 2 2 3 4 4 6 6 6 5 5 7 8 8 6 4 3 3 3 2 1 0 0 0 0 1 2 1 1 0 0 0 0 0
3 3 3 3 3 3 3 3 3 2 0 1 1 2 4 6 6 6 6 6 6 7 7 6 3 1 1 1 1 0 0 0 0 0 0 0 0 0 0 0 0 0 0
3 3 3 3 3 2 2 1 1 0 0 1 1 1 2 4 6 6 6 6 6 7 7 6 3 1 0 0 0 0 0 0 0 0 0 0 0 0 0 0 0 0 0
3 3 3 3 2 1 1 0 0 0 0 1 1 0 1 2 4 6 6 6 6 7 8 7 3 1 0 0 0 0 0 0 0 0 0 0 0 0 0 0 0 0 0